Regional Weather Roundup
Issued by NWS

Home | Current Version | Previous Version | Graphics & Text | Print | Product List | Glossary On
Versions: 1 2 3 4 5 6 7 8 9 10 11 12 13 14 15 16 17 18 19 20 21 22 23 24 25 26 27 28 29 30 31 32 33 34 35 36 37 38 39 40 41 42 43 44 45 46 47 48 49 50
000
ASUS43 KLOT 061110
RWRIL

ILLINOIS REGIONAL WEATHER ROUNDUP
NATIONAL WEATHER SERVICE CHICAGO/ROMEOVILLE IL
500 AM CST FRI MAR 06 2015

NOTE: "FAIR" INDICATES FEW OR NO CLOUDS BELOW 12,000 FEET WITH NO
SIGNIFICANT WEATHER AND/OR OBSTRUCTIONS TO VISIBILITY.

* THESE STATIONS ARE NOT UNDER NWS QUALITY CONTROL. THEY ALSO MAY NOT
  REPORT WEATHER SUCH AS PRECIPITATION OR FOG.

ILZ001-002-007-009-015-016-024-061200-
NORTHWEST ILLINOIS

CITY           SKY/WX    TMP DP  RH WIND       PRES   REMARKS
MOLINE         PTCLDY     8  -2  63 S8        30.42F WCI  -4
STERLING*      PTCLDY     1  -2  85 S3        30.42F
SAVANNA*       PTCLDY    -1  -6  79 S8        30.42S WCI -16
$$

ILZ003-004-008-010-011-017-018-061200-
NORTH CENTRAL ILLINOIS

CITY           SKY/WX    TMP DP  RH WIND       PRES   REMARKS
ROCKFORD       CLOUDY    -1  -8  72 SE3       30.44S
FREEPORT*      PTCLDY     1  -5  75 S13       30.40F WCI -16
ROCHELLE*      PTCLDY    -6 -10  81 CALM      30.44S
DE KALB*       PTCLDY    -3  -6  84 S10       30.42F WCI -19
PERU*          PTCLDY     5  -2  73 S9        30.47S WCI -10
$$

ILZ005-006-012>014-019>023-061200-
NORTHEAST ILLINOIS

CITY           SKY/WX    TMP DP  RH WIND       PRES   REMARKS
CHICAGO-OHARE  PTCLDY     3  -3  76 S8        30.45F WCI -10
CHICAGO-MIDWAY MOCLDY     6   0  76 S7        30.47F WCI  -6
AURORA         PTCLDY     1  -6  72 S6        30.45F WCI -10
LANSING*       PTCLDY    -2  -6  81 SW3       30.49F
JOLIET*        MOCLDY     1  -3  85 CALM      30.48F
WAUKEGAN       PTCLDY    -1  -6  79 SW7       30.42F WCI -14
DUPAGE AIRPORT PTCLDY     0  -5  79 S7        30.44F WCI -13
KANKAKEE*      MOCLDY    -2  -6  82 CALM      30.51S
WHEELING       PTCLDY     4  -3  73 S7        30.47S WCI  -8
MORRIS*        MOCLDY    -2  -5  87 S5        30.47F WCI -12
ROMEOVILLE*    MOCLDY     0  -3  85 SW6       30.47F WCI -11
NORTHERLY ISL    N/A      8   1  73 S5          N/A  WCI   0
$$

LMZ740>746-061200-
SOUTHERN LAKE MICHIGAN

STATION/POSITION SKY/WX   TEMP    WIND        PRES    VSBY  WAVE
                          AIR SEA DIR/SP/G                  HT/PER
                          (F)     (DEG/KT/KT) (MB)    (MI)  (FT/S)
WAUKEGAN HARBOR             6                   N/A
HARRISON CRIB               9     200/ 16/ 20   N/A
BURNHAM HARBOR              8     230/  5/ 10   N/A
CALUMET HARBOR              6     200/  7/  8 1030.8S
MICHIGAN CITY               4     180/  7/  8   N/A
$$

ILZ025>027-034>036-040-047-049-050-058-095>099-061200-
WEST-CENTRAL ILLINOIS

CITY           SKY/WX    TMP DP  RH WIND       PRES   REMARKS
QUINCY         CLEAR     12   2  64 S9        30.44F WCI   0
GALESBURG*     CLEAR      3  -2  79 S6        30.44S WCI  -8
MACOMB*        CLEAR      8   2  77 S12       30.48S WCI  -7
JACKSONVILLE*  PTCLDY    11   2  68 S9        30.50S WCI  -2
PITTSFIELD*    CLEAR     10   4  77 S7        30.49S WCI  -1
$$

ILZ028>032-037-038-041>044-048-051>054-059>061-061200-
CENTRAL ILLINOIS

CITY           SKY/WX    TMP DP  RH WIND       PRES   REMARKS
PONTIAC        PTCLDY    -1  -5  82 SE3       30.50S
BLOOMINGTON    PTCLDY     1  -3  83 S10       30.49S WCI -15
DECATUR        PTCLDY    -2  -9  72 S6        30.52S WCI -14
PEORIA         PTCLDY     6  -1  73 S7        30.50R WCI  -6
LACON*         PTCLDY     3  -3  73 S5        30.49R WCI  -6
LINCOLN*       FAIR       4  -1  78 S9        30.55S WCI -10
SPRINGFIELD    PTCLDY     8   0  69 S12       30.52S WCI  -7
TAYLORVILLE    PTCLDY     3   0  85 S6        30.53S WCI  -8
$$

ILZ033-039-045-046-055>057-062-063-061200-
EAST-CENTRAL ILLINOIS

CITY           SKY/WX    TMP DP  RH WIND       PRES   REMARKS
CHAMPAIGN      PTCLDY    -3  -9  75 S7        30.52R WCI -16
DANVILLE*      MOCLDY   -10 -14  81 SE3       30.49F
RANTOUL*       PTCLDY    -6 -10  85 SE5       30.51S WCI -17
MATTOON        PTCLDY     4  -2  76 S6        30.52F WCI  -7
PARIS*         MOCLDY    -4  -7  84 CALM      30.55S
$$

ILZ079-100>102-061200-
SOUTHWEST ILLINOIS

CITY           SKY/WX    TMP DP  RH WIND       PRES   REMARKS
ALTON          CLEAR      8   4  81 SE6       30.54S WCI  -2
BELLEVILLE     PTCLDY    10   7  88 S3        30.55F
CAHOKIA*       CLEAR     15   7  70 S7        30.55F WCI   5
SPARTA*        CLEAR     10   3  74 S3        30.57S
$$

ILZ064>066-069>071-074>076-080>082-084>086-088>090-092>094-061200-
SOUTH-CENTRAL ILLINOIS

CITY           SKY/WX    TMP DP  RH WIND       PRES   REMARKS
CARBONDALE     MOCLDY     1  -5  75 CALM      30.58S
CAIRO*         PTCLDY     6   2  84 CALM      30.59F FOG
EFFINGHAM*     MOCLDY    -2  -8  75 CALM      30.57R
MARION         MOCLDY     5   1  85 CALM      30.59R
MT. VERNON     PTCLDY     1  -6  71 CALM      30.56S
CENTRALIA*     CLEAR      9   3  78 SE5       30.56S WCI   0
SALEM*         PTCLDY     9   3  78 CALM      30.56S
METROPOLIS*    MOCLDY    -2  -4  89 CALM      30.59S
$$

ILZ067-068-072-073-078-083-087-091-061200-
SOUTHEAST ILLINOIS

CITY           SKY/WX    TMP DP  RH WIND       PRES   REMARKS
LAWRENCEVILLE  PTCLDY     1  -3  83 CALM      30.58S
FLORA*         PTCLDY     1  -2  87 CALM      30.57F
FAIRFIELD*     MOCLDY     1  -3  86 CALM      30.56F
HARRISBURG*    MOCLDY    -3  -7  84 CALM      30.60F
ROBINSON*      PTCLDY    -6 -10  83 CALM      30.59F
CARMI*           N/A     -3  -6  84 CALM      30.59R FOG
$$

ABBREVIATIONS USED IN REMARKS
   TC - TEMPERATURE IN CELSIUS
  WCI - WIND CHILL INDEX
   HX - HEAT INDEX
  VSB - VISIBILITY
$$



USA.gov is the U.S. government's official web portal to all federal, state and local government web resources and services.